Regional Weather Roundup
Issued by NWS Newport/Morehead, NC

Current Version | Previous Version | Text Only | Print | Product List | Glossary On
Versions: 1 2 3 4 5 6 7 8 9 10 11 12 13 14 15 16 17 18 19 20 21 22 23 24 25 26 27 28 29 30 31 32 33 34 35 36 37 38 39 40 41 42 43 44 45 46 47 48 49 50
000 ASUS42 KMHX 190610 RWRMHX WEATHER ROUNDUP FOR EASTERN NORTH CAROLINA NATIONAL WEATHER SERVICE NEWPORT/MOREHEAD CITY NC 200 AM EDT FRI SEP 19 2014 NOTE: "FAIR" INDICATES FEW OR NO CLOUDS BELOW 12,000 FEET WITH NO SIGNIFICANT WEATHER AND/OR OBSTRUCTIONS TO VISIBILITY NCZ015>017-031-032-045>047-102-103-190700- NORTH COAST CITY SKY/WX TMP DP RH WIND PRES REMARKS EDENTON CLEAR 60 59 96 CALM 30.09S ELIZABETH CITY CLEAR 60 58 92 CALM 30.09R KITTY HAWK CLEAR 70 57 64 E3 30.08R MANTEO CLEAR 68 58 70 NE5 30.09R $$ NCZ045>047-081-094-103-104-190700- CENTRAL COAST CITY SKY/WX TMP DP RH WIND PRES REMARKS FRISCO CLEAR 67 61 81 NE6 30.06S SWANQUARTER N/A 64 N/A N/A NE5 30.03S $$ NCZ095-097-098-100-101-190700- SOUTHERN COAST CITY SKY/WX TMP DP RH WIND PRES REMARKS BEAUFORT CLEAR 66 61 84 NE7 30.06S CEDAR ISLAND N/A 73 N/A N/A NE10 30.09S JACKSONVILLE MOCLDY 69 60 73 E8 30.05F NEWPORT NOT AVBL PINEY ISLAND CLEAR 75 59 57 NE9 30.06S WILMINGTON MOCLDY 65 62 90 NE9 30.04S $$ NCZ011>013-027>030-043-044-078>080-089-090>093-098-190700- COASTAL PLAIN CITY SKY/WX TMP DP RH WIND PRES REMARKS AHOSKIE PTCLDY 57 56 96 CALM 30.10R CLINTON CLOUDY 65 61 85 CALM 30.07S ELIZABETHTOWN CLOUDY 66 62 89 CALM 30.05S GOLDSBORO MOCLDY 64 63 98 CALM 30.07R GREENVILLE CLEAR 63 59 88 CALM 30.10S HAVELOCK CLEAR 64 60 87 CALM 30.08S KENANSVILLE MOCLDY 61 61 100 CALM 30.08S KINSTON PTCLDY 62 60 95 CALM 30.09S NEW BERN CLEAR 67 59 75 E3 30.08S RICHLANDS MOCLDY 61 57 88 N3 30.07S ROANOKE RAPIDS NOT AVBL ROCKY MOUNT CLEAR 60 58 92 CALM 30.09S WASHINGTON CLEAR 60 57 91 CALM 30.09S WHITEVILLE PTCLDY 67 64 89 CALM 30.03S $$ AMZ130-135-150-152-154-156-158-170-250-252-270-ANZ085-086-088-633-658-670-190700- MARINE OBSERVATIONS STATION/POSITION TIME TEMP WIND PRES WAVE SWELL AIR SEA DIR/SP/G HT/PER HT/PER (UTC) (F) (DEG/KT/KT) (MB) (FT/S) (FT/S) CHESAPEAKE LIGHT 0500 71 100/ 9/ 10 1019.4 BUOY 44014 0600 72 73 60/ 12/ 14 1018.5 4/10 3/10 DUCK 0600 72 75 90/ 12/ 13 1018.0 2E DUCK 0600 N/A 3/13 2/13 OREGON INLET 0600 71 74 40/ 7/ 12 1018.4 BUOY 44095 0600 76 N/A 4/11 2/11 20E OREGON INLET NOT AVBL HATTERAS CG 0600 72 77 60/ 7/ 10 1018.4 DIAMOND BUOY 0600 73 30/ 14/ 17 1017.4 4/ 8 3/ 8 CAPE LOOKOUT 0500 76 60/ 14/ 17 1017.4 BEAUFORT LAB 0600 67 78 20/ 4/ 5 1017.1 30 SE NEW RIVER 0500 78 83 80/ 14/ 17 1017.0 5 SE WRIGHTSVILL 0500 74 81 80/ 12/ 16 N/A BUOY 41002 0546 79 82 80/ 12/ 14 1015.7 4/10 3/10 BUOY 41004 0600 81 83 90/ 6/ 8 1014.7 3/ 9 3/ 9 $$

USA.gov is the U.S. government's official web portal to all federal, state and local government web resources and services.